リニア彗星

C/2003 F1 ( LINEAR )

English version
Home page
Updated on November 29, 2003

---------------------------------------------------------------------

・ プロフィール

発見日 2003年3月23日
発見光度 18.2等
発見者 Lincoln Laboratory Near-Earth Asteroid Research project

・ 写真集

・ 軌道要素

Epoch 2003 June 10.0 TT = JDT 2452800.5
T 2003 June 28.42338 TT                                 MPC
q   4.0078342            (2000.0)            P               Q
n   0.01049477     Peri.  121.18184     -0.31191401     +0.13753606
a  20.6611250      Node    87.48796     -0.78316751     -0.59742124
e   0.8060205      Incl.   70.22139     +0.53792034     -0.79004538
P  93.91
>From 1068 observations 2003 Mar. 23-Aug. 4, mean residual 0".60.

・ 星図

・ 光度変化

        m1 = 8.0 + 5 logΔ + 10.0 log r

---------------------------------------------------------------------

軌道要素はM.P.E.C. 2003-P14に掲載されたものです。
星図は StellaNavigator Ver.2.0 for Windows (アストロアーツ 編著 / アスキー出版局刊) で作成したものです。
光度グラフはComet for Windowsで作成したものです。

---------------------------------------------------------------------

Copyright(C) Seiichi Yoshida (comet@aerith.net). All rights reserved.